EW6618 Weather Reports


Display with metric or nautical units.
time (UTC)temp
F
wind
direction
speed
MPH
gust
MPH
rain 1hr
in
rain 24hr
in
rain mn
in
humidity
%
barometer
mb
20260903004511 73 234 9.0 13.0 0.00 0.00 0.00 78 1014.5
20260903003533 73 245 9.0 14.0 0.00 0.00 0.00 77 1014.6
20260903002534 73 252 9.0 14.0 0.00 0.00 0.00 76 1014.6
20260903001554 73 303 9.0 14.0 0.00 0.00 0.00 77 1014.6
20260903000454 73 259 10.0 14.0 0.00 0.00 0.00 77 1014.7
20260902232254 74 337 9.0 14.0 0.00 0.00 0.00 75 1014.9
20260902224942 75 292 8.0 12.0 0.00 0.00 0.00 74 1015.2
20260902222820 76 264 7.0 10.0 0.00 0.00 0.00 70 1015.3
20260902220609 76 100 7.0 10.0 0.00 0.00 0.00 68 1015.5
20260902215615 77 278 7.0 10.0 0.00 0.00 0.00 69 1015.7
20260902214549 77 205 6.0 9.0 0.00 0.00 0.00 67 1015.7
20260902213610 77 257 6.0 9.0 0.00 0.00 0.00 64 1015.8
20260902211423 76 210 5.0 8.0 0.00 0.00 0.00 68 1016.1
20260902203046 76 221 6.0 11.0 0.00 0.00 0.00 69 1016.3
20260902200921 75 241 6.0 10.0 0.00 0.00 0.00 70 1016.4
20260902195853 75 249 6.0 10.0 0.00 0.00 0.00 71 1016.5
20260902194905 75 226 6.0 10.0 0.00 0.00 0.00 70 1016.5
20260902192739 75 274 6.0 9.0 0.00 0.00 0.00 69 1016.6
20260902190627 75 19 6.0 10.0 0.00 0.00 0.00 69 1016.8
20260902185619 75 3 6.0 9.0 0.00 0.00 0.00 69 1016.9
20260902184546 75 347 5.0 8.0 0.00 0.00 0.00 70 1016.9
20260902182338 75 170 6.0 9.0 0.00 0.00 0.00 70 1017.1
20260902181358 76 43 4.0 9.0 0.00 0.00 0.00 70 1016.9
20260902174159 75 271 4.0 8.0 0.00 0.00 0.00 71 1016.8
20260902173140 75 238 3.0 6.0 0.00 0.00 0.00 72 1016.9
20260902172139 75 127 3.0 6.0 0.00 0.00 0.00 72 1016.8
20260902165939 74 200 2.0 6.0 0.00 0.00 0.00 73 1016.7
20260902164927 74 235 1.0 6.0 0.00 0.00 0.00 74 1016.5
20260902161748 73 244 2.0 4.0 0.00 0.00 0.00 74 1016.6
20260902160720 73 11 1.0 4.0 0.00 0.00 0.00 75 1016.6
20260902154623 72 234 1.0 3.0 0.00 0.00 0.00 76 1016.5
20260902153643 72 153 0.0 3.0 0.00 0.00 0.00 77 1016.5
20260902151611 70 119 1.0 3.0 0.00 0.00 0.00 79 1016.4
20260902144331 68 97 0.0 2.0 0.00 0.00 0.00 83 1016.4
20260902142306 65 70 0.0 2.0 0.00 0.00 0.00 85 1016.4
20260902141314 64 77 1.0 3.0 0.00 0.00 0.00 85 1016.1
20260902140331 64 113 1.0 3.0 0.00 0.00 0.00 86 1015.9
20260902134316 64 80 0.0 2.0 0.00 0.00 0.00 85 1015.7
20260902133314 64 73 0.0 2.0 0.00 0.00 0.00 85 1015.6
20260902130022 64 80 1.0 3.0 0.00 0.00 0.00 86 1015.4
20260902124948 64 85 1.0 1.0 0.00 0.00 0.00 85 1015.5
20260902123939 64 77 1.0 3.0 0.00 0.00 0.00 85 1015.5
20260902122950 64 69 1.0 3.0 0.00 0.00 0.00 85 1015.6
20260902121938 64 79 1.0 3.0 0.00 0.00 0.00 85 1015.7
20260902120919 65 94 1.0 3.0 0.00 0.00 0.00 85 1015.7
20260902115917 65 68 1.0 3.0 0.00 0.00 0.00 85 1015.6
20260902111526 65 86 1.0 2.0 0.00 0.00 0.00 84 1015.8
20260902110519 65 82 1.0 2.0 0.00 0.00 0.00 84 1015.8
20260902105525 65 79 1.0 2.0 0.00 0.00 0.00 84 1015.8
20260902104535 65 72 1.0 3.0 0.00 0.00 0.00 84 1015.7
20260902103540 65 79 1.0 3.0 0.00 0.00 0.00 84 1015.7
20260902102559 66 73 1.0 4.0 0.00 0.00 0.00 84 1015.7
20260902094144 68 232 1.0 6.0 0.00 0.00 0.00 83 1016.0
20260902093123 68 258 3.0 6.0 0.00 0.00 0.00 84 1015.9
20260902092053 68 238 4.0 6.0 0.00 0.00 0.00 84 1015.9
20260902091053 68 254 4.0 7.0 0.00 0.00 0.00 84 1015.9
20260902090100 68 281 4.0 7.0 0.00 0.00 0.00 84 1015.9
20260902085030 68 261 4.0 8.0 0.00 0.00 0.00 83 1015.9
20260902084011 68 250 5.0 8.0 0.00 0.00 0.00 83 1016.0
20260902082937 68 248 5.0 9.0 0.00 0.00 0.00 83 1016.0
20260902075708 68 249 7.0 14.0 0.00 0.00 0.00 83 1016.0
20260902074718 68 299 7.0 12.0 0.00 0.00 0.00 83 1016.0
20260902073738 68 206 7.0 12.0 0.00 0.00 0.00 83 1016.0
20260902071636 68 274 6.0 11.0 0.00 0.00 0.00 84 1015.7
20260902070620 69 209 6.0 10.0 0.00 0.00 0.00 84 1015.6
20260902065554 69 220 6.0 10.0 0.00 0.00 0.00 82 1015.6
20260902064615 69 257 6.0 10.0 0.00 0.00 0.00 82 1015.5
20260902063625 68 205 4.0 9.0 0.00 0.00 0.00 82 1015.5
20260902062616 69 39 6.0 11.0 0.00 0.00 0.00 81 1015.5
20260902055440 69 310 6.0 10.0 0.00 0.00 0.00 82 1015.4
20260902054431 69 271 6.0 9.0 0.00 0.00 0.00 81 1015.3
20260902052219 69 83 7.0 11.0 0.00 0.00 0.00 81 1015.4
20260902050048 69 317 7.0 11.0 0.00 0.00 0.00 80 1015.3
20260902045052 70 227 7.0 11.0 0.00 0.00 0.00 80 1015.3
20260902044021 70 195 8.0 13.0 0.00 0.00 0.00 80 1015.1
20260902043014 70 276 8.0 13.0 0.00 0.00 0.00 79 1015.0
20260902040848 70 263 8.0 13.0 0.00 0.00 0.00 78 1014.8
20260902035823 70 288 8.0 13.0 0.00 0.00 0.00 77 1014.6
20260902034755 69 263 7.0 9.0 0.00 0.00 0.00 76 1014.5
20260902033736 69 245 7.0 11.0 0.00 0.00 0.00 77 1014.4
20260902032716 70 8 7.0 13.0 0.00 0.00 0.00 78 1014.2
20260902031700 70 249 8.0 12.0 0.00 0.00 0.00 77 1014.2
20260902030713 69 278 8.0 13.0 0.00 0.00 0.00 75 1014.2
20260902025647 69 288 8.0 13.0 0.00 0.00 0.00 76 1014.4
20260902024648 70 310 8.0 13.0 0.00 0.00 0.00 77 1014.3
20260902022521 70 224 7.0 11.0 0.00 0.00 0.00 77 1014.1
20260902020419 71 240 6.0 10.0 0.00 0.00 0.00 78 1014.1
20260902014301 71 258 6.0 11.0 0.00 0.00 0.00 78 1014.2
20260902013310 72 296 6.0 11.0 0.00 0.00 0.00 77 1014.0
20260902012309 72 287 6.0 11.0 0.00 0.00 0.00 76 1014.1
20260902011327 72 121 7.0 13.0 0.00 0.00 0.00 77 1014.1
20260902010321 72 221 8.0 14.0 0.00 0.00 0.00 78 1014.4